Das Wetter in  D-61279 Heinzenberg / Taunus





Wetter Minimum- & Maximum-Werte im Mai 2012

Standort: Heinzenberg / Taunus - Höhe 297 m         8 24' 1" Ost 50 21' 51" Nord
(   3-stündige Aktualisierung    letzte Aktualisierung um 19:04 am 31.05.2012  )


Messgrösse

Minimum

Maximum

Durchschnitt

Temperatur West /
Luftfeuchte West
Anklicken für Monats-Diagramm

-0,7 C

05:26
17.05.2012

22 %

17:54
25.05.2012

29,5 C

17:16
22.05.2012

99 %

00:13
07.05.2012

Temp

14,8 C

Feuchte

73 %

Temperatur Ost /
Luftfeuchte Ost
Anklicken für Monats-Diagramm

-0,2 C

06:21
17.05.2012

--

--
--

28,6 C

16:31
22.05.2012

--

--
--

14,9 C

--

Luftdruck Anklicken für Monats-Diagramm

997,3 hPa

18:45
21.05.2012

1035,4 hPa

03:18
13.05.2012

1015,6 hPa

Taupunkt

-1,7 C

05:01
17.05.2012

20,3 C

13:27
23.05.2012

9,2 C

Windchill
( gefühlte Temperatur )

-4,8 C

09:45
16.05.2012

29,5 C

17:16
22.05.2012

13,4 C

Windgeschwindigkeit /
Windrichtung
Anklicken für Monats-Diagramm

---

39,8 km/h / W-SW

14:11
11.05.2012

6,9 km/h
W-SW

Helligkeit /
Sonnenschein
Anklicken für Monats-Diagramm
Anklicken für Monats-Diagramm

Sonnenschein:

201:43 Stunden

Max: 14:05 Std am
26.05.2012

113 klux

12:32
12.05.2012

33 klux

Solarstrahlung Anklicken für Monats-Diagramm

---

773 W/m

12:32
12.05.2012

245 W/m

Regenmenge
    Mai 2012
Anklicken für Monats-Diagramm

Insgesamt 66,9 l/m

in 42:39 Stunden
an 14 Tagen

13,8 l/m

23:33
06.05.2012

Gesamtmenge

66,9 l/m

Regen-Tage
    Mai 2012
Anklicken für Monats-Diagramm

>   0 mm/Tag

>   2 mm/Tag

>   5 mm/Tag

> 10 mm/Tag

> 20 mm/Tag

14 Tage     
9 Tage     
5 Tage     
2 Tage     
0 Tage     

Eisige Tage Mai 2012 / 2011

Tmin ≤ -10C     

0 Tage

/

0 Tage

Eistage Mai 2012 / 2011

Tmax <     0C     

0 Tage

/

0 Tage

Frosttage Mai 2012 / 2011

Tmin ≤     0C     

  1 Tag

/

2 Tage

Kalte Tage Mai 2012 / 2011

Tmax <   10C     

0 Tage

/

0 Tage

Warme Tage Mai 2012 / 2011

Tmax ≥   20C     

20 Tage

/

23 Tage

Sommertage Mai 2012 / 2011

Tmax ≥   25C     

11 Tage

/

11 Tage

Heisse Tage Mai 2012 / 2011

Tmax ≥   30C     

0 Tage

/

  1 Tag


Monatsdiagramm Mai 2012

Die Kurven zeigen den Durchschnittswert des jeweiligen Tages an


Wetter-Monatsübersicht Mai 2012
Datum
  Temperatur
   Luftdruck
   Wind
  Regen
   Luftfeuchte
   Helligkeit

Sonnen-
schein


Temp.

Min.
Temp.

Max.
Temp.


Luftdruck

Min.
Luftdruck

Max.
Luftdruck

-Geschw.
Haupt-Richtg.

Max.
Wind

Menge /
Dauer


Feuchte

Min.
Feuchte

Max.
Feuchte


Helligkeit

Max.
Helligkeit

1.
Mai
17,1 C12,3 C
05:53
23,7 C
18:53
1015,0 hPa1011,1 hPa
02:08
1017,3 hPa
11:28
7,0 km/h
W
25,8 km/h
13:28  
---
66 %48 %
19:03
82 %
10:43
39,3 klux89,4 klux
12:53
7:46 Std 
2.
Mai
16,1 C12,1 C
06:24
21,7 C
13:04
1013,5 hPa1010,5 hPa
15:14
1017,3 hPa
01:44
5,5 km/h
W
30,6 km/h
17:34  
0,3 l/m
55 Minuten
81 %67 %
12:49
93 %
06:39
25,5 klux85,8 klux
12:14
4:05 Std 
3.
Mai
12,9 C7,6 C
06:00
20,1 C
18:00
1012,4 hPa1009,0 hPa
20:30
1014,8 hPa
02:50
8,0 km/h
W-SW
23,1 km/h
10:55  
---
75 %46 %
18:15
92 %
07:00
26,4 klux103,0 klux
14:05
4:20 Std 
4.
Mai
13,0 C5,4 C
05:11
20,8 C
12:26
1005,9 hPa1002,1 hPa
17:11
1010,9 hPa
01:41
5,8 km/h
W-SW
34,4 km/h
12:46  
1,4 l/m
1:10 Stunden
74 %41 %
12:01
94 %
07:51
33 klux96 klux
14:26
7:20 Std 
5.
Mai
10,9 C8,5 C
23:58
13,5 C
12:52
1004,6 hPa1003,2 hPa
09:52
1007,7 hPa
23:58
2,8 km/h
W
20,7 km/h
15:37  
13,7 l/m
7:00 Stunden
96 %91 %
13:12
98 %
08:42
8,5 klux27,8 klux
12:37
--- 
6.
Mai
9,2 C6,8 C
05:23
12,1 C
15:03
1009,6 hPa1007,7 hPa
00:03
1013,9 hPa
23:53
0,8 km/h
NO
15,7 km/h
23:48  
13,8 l/m
8:55 Stunden
96 %90 %
14:53
98 %
09:53
13,4 klux63,1 klux
14:58
5 Min 
7.
Mai
9,7 C6,5 C
23:49
15,2 C
18:18
1017,2 hPa1013,9 hPa
00:03
1019,4 hPa
23:49
6,8 km/h
W
18,8 km/h
02:18  
0,2 l/m
30 Minuten
87 %62 %
18:43
99 %
00:13
21,2 klux88,0 klux
12:43
3:15 Std 
8.
Mai
13,4 C5,3 C
01:34
22,0 C
17:04
1014,6 hPa1010,6 hPa
19:09
1019,5 hPa
00:54
10,8 km/h
SW
31,3 km/h
11:39  
---
70 %38 %
14:19
98 %
07:54
41,8 klux83,3 klux
13:09
9:05 Std 
9.
Mai
15,6 C13,2 C
04:40
19,2 C
17:00
1014,4 hPa1012,3 hPa
00:50
1018,3 hPa
23:21
12,6 km/h
SW
29,0 km/h
10:30  
0,8 l/m
1:40 Stunden
85 %75 %
00:00
92 %
23:21
19,5 klux79,2 klux
15:30
30 Min 
10.
Mai
19,2 C11,6 C
05:16
25,8 C
15:26
1018,6 hPa1017,1 hPa
18:46
1019,9 hPa
09:56
10,7 km/h
SW
37,9 km/h
12:41  
---
75 %51 %
15:31
98 %
07:01
32,6 klux98,7 klux
12:31
3:54 Std 
11.
Mai
19,9 C11,4 C
23:57
27,4 C
13:01
1020,2 hPa1017,9 hPa
14:06
1026,0 hPa
23:57
11,3 km/h
W-SW
39,8 km/h
14:11  
8,8 l/m
2:40 Stunden
75 %53 %
14:01
96 %
20:11
31,9 klux104,0 klux
12:46
4:55 Std 
12.
Mai
10,7 C6,4 C
23:58
15,4 C
18:22
1031,1 hPa1024,9 hPa
00:17
1034,9 hPa
23:58
12,1 km/h
W-NW
32,0 km/h
14:37  
---
68 %46 %
18:22
87 %
00:02
32 klux113 klux
12:32
4:35 Std 
13.
Mai
8,0 C0,7 C
06:03
16,6 C
17:58
1031,1 hPa1025,6 hPa
19:23
1035,4 hPa
03:18
2,6 km/h
N-NW
17,7 km/h
14:13  
---
67 %36 %
17:08
94 %
07:18
41 klux101 klux
12:38
10:10 Std 
14.
Mai
9,7 C0,2 C
06:09
18,0 C
17:44
1020,0 hPa1013,7 hPa
22:30
1027,1 hPa
01:09
5,7 km/h
W-SW
23,0 km/h
16:04  
---
62 %33 %
17:39
91 %
06:44
41 klux86 klux
11:44
10:15 Std 
15.
Mai
7,9 C3,0 C
05:45
14,3 C
15:10
1010,7 hPa1007,0 hPa
15:10
1014,3 hPa
23:45
10,4 km/h
W
38,0 km/h
14:55  
3,0 l/m
2:55 Stunden
78 %50 %
15:15
93 %
10:20
28,9 klux109,0 klux
12:15
3:50 Std 
16.
Mai
7,3 C3,4 C
23:56
12,6 C
18:30
1020,3 hPa1014,3 hPa
00:00
1026,0 hPa
23:56
15,1 km/h
W-NW
38,2 km/h
17:35  
3,0 l/m
4:06 Stunden
80 %57 %
18:35
97 %
06:00
36 klux110 klux
12:25
6:37 Std 
17.
Mai
8,4 C-0,7 C
05:26
17,7 C
17:06
1022,0 hPa1014,7 hPa
22:42
1026,6 hPa
05:26
4,5 km/h
O-SO
30,4 km/h
16:41  
---
65 %35 %
15:46
95 %
07:51
43 klux101 klux
14:01
9:55 Std 
18.
Mai
12,3 C8,2 C
07:17
18,2 C
16:22
1011,6 hPa1009,7 hPa
16:22
1014,8 hPa
00:37
12,2 km/h
O-SO
36,7 km/h
09:47  
3,6 l/m
5:07 Stunden
66 %45 %
12:47
93 %
21:47
25 klux101 klux
12:22
2:40 Std 
19.
Mai
16,5 C11,5 C
06:18
24,0 C
18:43
1011,5 hPa1008,0 hPa
18:53
1013,6 hPa
06:18
2,4 km/h
O-SO
26,3 km/h
22:34  
7,1 l/m
1:50 Stunden
78 %48 %
17:18
97 %
08:28
32 klux94 klux
13:38
4:00 Std 
20.
Mai
17,7 C10,9 C
06:24
26,7 C
18:04
1006,2 hPa1002,0 hPa
20:49
1010,1 hPa
00:39
3,2 km/h
NO
19,0 km/h
15:19  
0,6 l/m
55 Minuten
80 %49 %
17:54
98 %
06:04
37,0 klux106,0 klux
12:49
7:50 Std 
21.
Mai
18,6 C12,6 C
05:45
26,8 C
18:45
999,1 hPa997,3 hPa
18:45
1002,7 hPa
01:15
2,3 km/h
NO
17,7 km/h
11:55  
---
78 %55 %
18:45
96 %
06:00
26 klux71 klux
12:50
1:30 Std 
22.
Mai
21,0 C12,4 C
06:11
29,5 C
17:16
1005,4 hPa999,4 hPa
00:01
1013,9 hPa
23:47
4,3 km/h
SO
26,3 km/h
13:11  
---
66 %36 %
16:51
95 %
06:51
45,5 klux84,5 klux
13:21
12:55 Std 
23.
Mai
19,8 C13,6 C
05:12
28,8 C
17:12
1018,5 hPa1013,9 hPa
00:02
1023,3 hPa
23:58
3,4 km/h
NW
20,8 km/h
10:07  
6,2 l/m
50 Minuten
79 %45 %
17:17
98 %
10:22
36,7 klux99,6 klux
11:47
6:10 Std 
24.
Mai
20,9 C13,0 C
06:22
29,2 C
17:23
1023,6 hPa1021,9 hPa
17:23
1025,3 hPa
23:59
5,1 km/h
NO
22,6 km/h
13:23  
---
67 %36 %
17:28
95 %
06:28
46 klux92 klux
12:58
13:30 Std 
25.
Mai
18,4 C11,4 C
06:19
26,0 C
17:49
1024,1 hPa1021,2 hPa
17:49
1026,9 hPa
08:04
5,7 km/h
NO
30,8 km/h
12:39  
---
47 %22 %
17:54
73 %
07:04
45,5 klux82,9 klux
13:09
13:30 Std 
26.
Mai
17,7 C7,5 C
06:05
26,7 C
18:30
1021,2 hPa1018,0 hPa
18:30
1023,4 hPa
06:05
4,9 km/h
SO
23,8 km/h
10:35  
---
51 %29 %
18:05
84 %
07:10
45,7 klux84,2 klux
12:55
14:05 Std 
27.
Mai
17,2 C8,5 C
05:56
25,7 C
17:11
1018,9 hPa1016,0 hPa
18:31
1021,2 hPa
05:56
2,9 km/h
SO
22,0 km/h
13:11  
---
61 %32 %
13:51
87 %
06:26
40,9 klux108,0 klux
14:26
9:10 Std 
28.
Mai
17,8 C9,0 C
05:12
25,6 C
17:22
1014,7 hPa1011,9 hPa
17:22
1017,9 hPa
03:22
5,9 km/h
W-NW
24,5 km/h
14:17  
---
63 %35 %
18:07
89 %
06:32
41 klux106 klux
13:32
9:25 Std 
29.
Mai
17,9 C11,7 C
06:02
24,5 C
16:57
1014,2 hPa1013,1 hPa
16:57
1016,2 hPa
23:47
10,1 km/h
W
32,8 km/h
15:22  
---
62 %38 %
13:37
84 %
07:12
42 klux83 klux
13:37
10:05 Std 
30.
Mai
17,7 C12,0 C
05:43
23,8 C
16:53
1016,8 hPa1015,0 hPa
01:02
1019,5 hPa
23:59
8,0 km/h
W-NW
26,8 km/h
14:13  
---
69 %46 %
18:13
91 %
07:33
35,8 klux95,1 klux
14:03
5:46 Std 
31.
Mai
15,0 C9,1 C
05:44
21,0 C
15:04
1017,0 hPa1013,1 hPa
20:29
1020,1 hPa
05:44
9,8 km/h
W-SW
35,7 km/h
17:14  
4,3 l/m
4:06 Stunden
82 %57 %
15:39
94 %
19:34
22,9 klux64,3 klux
10:24
30 Min 



Mai
2012

Temperatur

  

Luftdruck

  

Wind

  

Regen

  

Luftfeuchte

  

Helligkeit

Sonnen-
schein

Min

Max

Min

Max

Max

Max

Min

Max

Max

Max

14,8 C

-0,7 C

05:26 Uhr
17.05.2012

29,5 C

17:16 Uhr
22.05.2012

1015,6 hPa

997,3 hPa

18:45 Uhr
21.05.2012

1035,4 hPa

03:18 Uhr
13.05.2012

6,9 km/h

W-SW

39,8 km/h

14:11 Uhr
11.05.2012

13,8 l/m

8:55 Stunden
06.05.2012

73 %

22 %

17:54 Uhr
25.05.2012

99 %

00:13 Uhr
07.05.2012

33,4 klux

113,0 klux

12:32 Uhr
12.05.2012

14:05 Std

am
26.05.2012

Gesamt

Gesamt

66,9 l/m

14 Tage
42:39 h

201:43 Std


Wetter-Diagramme Mai 2012     Heinzenberg / Taunus   
TemperaturLuftfeuchte
SolarstrahlungLuftdruck
HelligkeitSonnenschein
RegenmengeRegendauer
Wind-GeschwindigkeitWind-Richtung